Overview Statistics Trail Chart Weather Telemetry Raw packets
 

This is the latest recevied weather packets stored in our database for station/object N0QWM. If no packets are shown the sender has not sent any weather packets the latest 10 day(s).

<< 19 20 21 22 23 24 25 >>
Time Temp. Humidity Pressure Rain* Wind** Luminosity Snow
1788523863 23.89° C 97% 1021.2 hPa 0 mm - 23 W/m² -
1788523559 23.89° C 97% 1021.5 hPa 0 mm - 18 W/m² -
1788523255 23.89° C 97% 1021.1 hPa 0 mm - 18 W/m² -
1788522949 24.44° C 96% 1021.1 hPa 0 mm - 19 W/m² -
1788522644 24.44° C 95% 1021.1 hPa 0 mm - 15 W/m² -
1788522339 23.89° C 97% 1020.9 hPa 0 mm - 11 W/m² -
1788522038 23.89° C 98% 1021 hPa 0 mm - 8 W/m² -
1788521733 23.89° C 99% 1021.2 hPa 0 mm - 5 W/m² -
1788521433 23.89° C 99% 1020.8 hPa 0 mm - 3 W/m² -
1788521128 23.89° C 99% 1020.9 hPa 0 mm - 1 W/m² -
1788520824 23.33° C 99% 1020.8 hPa 0 mm - 0 W/m² -
1788520519 23.33° C 99% 1020.8 hPa 0 mm - 0 W/m² -
1788520215 23.89° C 99% 1020.8 hPa 0 mm - 0 W/m² -
1788519909 23.89° C 99% 1021 hPa 0 mm - 0 W/m² -
1788519605 23.89° C 99% 1020.8 hPa 0 mm - 0 W/m² -
1788519304 23.33° C 99% 1020.9 hPa 0 mm - 0 W/m² -
1788518999 23.33° C 99% 1020.9 hPa 0 mm - 0 W/m² -
1788518694 23.33° C 99% 1020.8 hPa 0 mm - 0 W/m² -
1788518390 23.89° C 99% 1020.7 hPa 0 mm - 0 W/m² -
1788518086 23.89° C 99% 1020.6 hPa 0 mm - 0 W/m² -
1788517782 23.89° C 99% 1020.7 hPa 0 mm - 0 W/m² -
1788517478 23.89° C 99% 1020.9 hPa 0 mm - 0 W/m² -
1788517172 23.89° C 99% 1020.5 hPa 0 mm - 0 W/m² -
1788516870 23.89° C 99% 1020.7 hPa 0 mm - 0 W/m² -
1788516566 23.89° C 99% 1020.7 hPa 0 mm - 0 W/m² -

* Rain latest hour (hover to see other rain measurements)
** Current wind speed in m/s (hover to see current wind gust speed)